Regional Weather Roundup
Issued by NWS

Home | Current Version | Previous Version | Graphics & Text | Print | Product List | Glossary On
Versions: 1 2 3 4 5 6 7 8 9 10 11 12 13 14 15 16 17 18 19 20 21 22 23 24 25 26 27 28 29 30 31 32 33 34 35 36 37 38 39 40 41 42 43 44 45 46 47 48 49 50
000
ASUS43 KMKX 221211
RWRWI

WISCONSIN REGIONAL WEATHER ROUNDUP
NATIONAL WEATHER SERVICE MILWAUKEE/SULLIVAN WI
700 AM CDT TUE AUG 22 2017

NOTE: "FAIR" INDICATES FEW OR NO CLOUDS BELOW 12,000 FEET WITH NO
SIGNIFICANT WEATHER AND/OR OBSTRUCTIONS TO VISIBILITY.

WIZ001-002-006>008-014>016-023>028-221300-
NORTHWEST WISCONSIN

CITY           SKY/WX    TMP DP  RH WIND       PRES   REMARKS
SUPERIOR ARPT    N/A     54  53  94 NW10      29.92R
6HR MIN TEMP:  53; 6HR MAX TEMP:  58; 6HR PCP:  0.01;

ASHLAND        CLOUDY    56  55  97 W7        29.89R
6HR MIN TEMP:  53; 6HR MAX TEMP:  59;

HAYWARD        CLOUDY    57  54  89 VRB6      29.91R
6HR MIN TEMP:  56; 6HR MAX TEMP:  67; 6HR PCP: TRACE;

SIREN          CLEAR     55  52  89 NW7       29.96R
6HR MIN TEMP:  55; 6HR MAX TEMP:  65;

CUMBERLAND     MOCLDY    55  54  94 NW10      29.93R
RICE LAKE      PTCLDY    57  55  93 NW6       29.94R
6HR MIN TEMP:  57; 6HR MAX TEMP:  66;

CHETEK         MOCLDY    59  57  94 W6        29.92R
6HR MIN TEMP:  59; 6HR MAX TEMP:  66;

LADYSMITH      PTCLDY    57  55  94 NW7       29.92R
6HR MIN TEMP:  57; 6HR MAX TEMP:  66;

EAU CLAIRE     CLEAR     61  58  90 NW8       29.91R
6HR MIN TEMP:  60; 6HR MAX TEMP:  66;

MENOMONIE      CLEAR     60  58  92 W8        29.93R
6HR MIN TEMP:  60; 6HR MAX TEMP:  67;

NEW RICHMOND   CLEAR     58  56  95 NW8       29.96R
6HR MIN TEMP:  58; 6HR MAX TEMP:  66;

OSCEOLA        CLEAR     58  58 100 NW7       29.99R
6HR MIN TEMP:  58; 6HR MAX TEMP:  66;

$$

WIZ003>005-009-010-017-018-221300-
NORTH CENTRAL WISCONSIN

CITY           SKY/WX    TMP DP  RH WIND       PRES   REMARKS
MANITOWISH WTR CLOUDY    55  55 100 W7        29.85R
6HR MIN TEMP:  55; 6HR MAX TEMP:  65; 6HR PCP:  0.09;

ARBOR VITAE    MOCLDY    57  55  92 NW10      29.85R
6HR MIN TEMP:  57; 6HR MAX TEMP:  66; 6HR PCP:  0.08;

WOODRUFF       MOCLDY    57  55  92 NW10      29.85R
6HR MIN TEMP:  57; 6HR MAX TEMP:  66; 6HR PCP:  0.08;

RHINELANDER    CLOUDY    58  53  84 NW9       29.85R
6HR MIN TEMP:  58; 6HR MAX TEMP:  66; 6HR PCP: TRACE;

EAGLE RIVER    CLOUDY    56  54  92 NW10      29.83S
6HR MIN TEMP:  56; 6HR MAX TEMP:  66;

LAND O LAKES   CLOUDY    56  54  93 NW7       29.85R
6HR MIN TEMP:  56; 6HR MAX TEMP:  66;

PHILLIPS       MOCLDY    55  55  99 NW5       29.88R
6HR MIN TEMP:  55; 6HR MAX TEMP:  65;

TOMAHAWK         N/A     57  53  85 NW8       29.86R
6HR MIN TEMP:  57; 6HR MAX TEMP:  64;

MEDFORD        MOCLDY    57  55  91 NW10      29.87R
6HR MIN TEMP:  57; 6HR MAX TEMP:  65;

MERRILL        CLOUDY    61  57  88 NW7       29.86R
$$

WIZ029-030-035-036-043>047-221300-
CENTRAL WISCONSIN

CITY           SKY/WX    TMP DP  RH WIND       PRES   REMARKS
WAUSAU         MOCLDY    62  55  77 NW10      29.83R
6HR MIN TEMP:  61; 6HR MAX TEMP:  67;

MOSINEE        PTCLDY    63  57  82 NW18      29.85R
MARSHFIELD     PTCLDY    61  56  83 N16       29.86R
6HR MIN TEMP:  61; 6HR MAX TEMP:  66;

STEVENS POINT  CLOUDY    64  59  85 NW13G18   29.83R
6HR MIN TEMP:  63; 6HR MAX TEMP:  64;

WAUPACA        MOCLDY    67  65  91 W7        29.80R
6HR MIN TEMP:  67; 6HR MAX TEMP:  70;

WAUTOMA        CLOUDY    66  63  88 W10       29.83R
6HR MIN TEMP:  64; 6HR MAX TEMP:  67;

WISC RAPIDS    PTCLDY    65  62  90 NW9       29.85R
6HR MIN TEMP:  64; 6HR MAX TEMP:  66;

CAMP DOUGLAS   PTCLDY    64  64 100 W12       29.86R
$$

WIZ011>013-019>022-031-037>040-048>050-221300-
NORTHEAST WISCONSIN

CITY           SKY/WX    TMP DP  RH WIND       PRES   REMARKS
ANTIGO         PTCLDY    58  56  92 NW12      29.83R
6HR MIN TEMP:  58; 6HR MAX TEMP:  64;

SHAWANO        CLOUDY    68  63  85 W7        29.77R
6HR MIN TEMP:  67; 6HR MAX TEMP:  71;

OCONTO         MOCLDY    66  63  88 W10       29.74R
6HR MIN TEMP:  65; 6HR MAX TEMP:  69;

STURGEON BAY   PTCLDY    67  63  87 W13       29.74R
6HR MIN TEMP:  67; 6HR MAX TEMP:  71;

GREEN BAY      PTCLDY    66  64  93 W8G20     29.76R
6HR MIN TEMP:  65; 6HR MAX TEMP:  71;

MANITOWOC        N/A    N/A N/A N/A MISG        N/A
APPLETON       MOCLDY    64  63  94 W10       29.78R
CLINTONVILLE   MOCLDY    64  61  88 W8        29.78R
OSHKOSH        CLOUDY    66  62  87 W8        29.80R
6HR MIN TEMP:  65; 6HR MAX TEMP:  71;

$$

WIZ032>034-041-042-053>061-221300-
SOUTHWEST WISCONSIN

CITY           SKY/WX    TMP DP  RH WIND       PRES   REMARKS
LA CROSSE      CLEAR     68  62  81 NW16      29.89R
6HR MIN TEMP:  68; 6HR MAX TEMP:  70;

SPARTA         MOCLDY    62  60  93 W6        29.89R
6HR MIN TEMP:  61; 6HR MAX TEMP:  62;

VIROQUA        CLOUDY    63  63 100 NW9       29.91R
6HR MIN TEMP:  62; 6HR MAX TEMP:  63;

BOSCOBEL       CLOUDY    67  63  87 CALM      29.89R
6HR MIN TEMP:  65; 6HR MAX TEMP:  68;

PRAIRIE DU CHI CLOUDY    65  61  87 W8        29.91R
6HR MIN TEMP:  64; 6HR MAX TEMP:  66;

PLATTEVILLE    CLOUDY    64  64 100 W6        29.91R
6HR MIN TEMP:  64; 6HR MAX TEMP:  68;

$$

WIZ056-057-062-063-064-067-068-221300-
SOUTH CENTRAL WISCONSIN

CITY           SKY/WX    TMP DP  RH WIND       PRES   REMARKS
REEDSBURG      CLOUDY    65  65  99 W9        29.86R
6HR MIN TEMP:  64; 6HR MAX TEMP:  65;

BARABOO/DELLS  CLOUDY    65  61  88 W7        29.87R
6HR MIN TEMP:  64; 6HR MAX TEMP:  66;

LONE ROCK      CLOUDY    66  64  93 W6        29.88R
6HR MIN TEMP:  65; 6HR MAX TEMP:  68;

MINERAL POINT  CLOUDY    64  64 100 W10       29.90R
MADISON        CLOUDY    66  62  87 VRB3      29.85R
6HR MIN TEMP:  66; 6HR MAX TEMP:  72;

MIDDLETON      CLOUDY    66  65  99 W8        29.87R
6HR MIN TEMP:  66; 6HR MAX TEMP:  71;

WATERTOWN      CLOUDY    66  65  99 W7        29.84R
6HR MIN TEMP:  65; 6HR MAX TEMP:  72;

MONROE         CLOUDY    63  61  94 W12       29.89R
JANESVILLE     MOCLDY    66  66 100 W7        29.87R
$$

WIZ051-052-058>065-066-070>072-221300-
SOUTHEAST WISCONSIN

CITY           SKY/WX    TMP DP  RH WIND       PRES   REMARKS
MILWAUKEE      CLOUDY    71  63  75 W10       29.82R
6HR MIN TEMP:  71; 6HR MAX TEMP:  75;

WAUKESHA       CLOUDY    64  61  88 SW7       29.84S
MILWAUKEE/TIMM CLOUDY    66  59  77 W8        29.83R
RACINE         MOCLDY    70  64  81 W9        29.83F
6HR MIN TEMP:  70; 6HR MAX TEMP:  74; 6HR PCP: TRACE;

KENOSHA        CLOUDY    69  62  78 W9        29.83F
6HR MIN TEMP:  69; 6HR MAX TEMP:  74;

FOND DU LAC    CLOUDY    67  61  81 SW7       29.81R
6HR MIN TEMP:  66; 6HR MAX TEMP:  72;

SHEBOYGAN      MOCLDY    67  64  90 W10G20    29.79R
6HR MIN TEMP:  66; 6HR MAX TEMP:  71; 6HR PCP: TRACE;

WEST BEND      MOCLDY    64  63  94 W10       29.82R
JUNEAU         CLOUDY    65  62  91 W8        29.84S
6HR MIN TEMP:  63; 6HR MAX TEMP:  70;

$$

LSZ147-162-221300-
LAKE SUPERIOR

STATION/POSITION TIME  TEMP    WIND        PRES    WAVE
                       AIR SEA DIR/SP/G            HT/PER
                 (UTC) (F)     (DEG/KT/KT) (MB)    (FT/S)
W MID LAKE BUOY  1150   60 60  290/ 16/ 19 1009.0R   1/ 3
DEVILS ISLAND    1200   60     300/ 19/ 23 1011.2R
SAXON HARBOR     1130   58     240/  6/  9 1010.5R
$$

LMZ867-665-643>646-221300-
LAKE MICHIGAN

STATION/POSITION TIME  TEMP    WIND        PRES    WAVE
                       AIR SEA DIR/SP/G            HT/PER
                 (UTC) (F)     (DEG/KT/KT) (MB)    (FT/S)
S GREEN BAY BUOY 1200   68 71  260/ 17/ 21 1006.9
N MID LAKE BUOY  1150   69 68  250/ 16/ 19 1004.8R   2/ 4
NORTHPORT PIER   1140   69     280/  7/ 17 1005.4R
KEWAUNEE LAKESHO 1148   67     270/ 11/ 16 1006.3R
SHEBOYGAN LAKESH 1200   68     260/ 15



USA.gov is the U.S. government's official web portal to all federal, state and local government web resources and services.